カタログに戻る

STARLINK-1094

運用中通信VLEO
NORAD 44941·PAYLOAD·🇺🇸 United States

打ち上げ Jan 7, 2020 から Cape Canaveral Space Force Station

Loading…

次のパス (今後24時間)

TLE

最新Source: CelesTrak SupGP

元期: Sep 15, 2026, 01:38 UTC

1 44941C 20001AD  26258.06854167  .00093320  00000+0  87447-3 0  2582
2 44941  53.1452 130.5878 0003310  68.5520  60.4088 15.66506038    16

AllMySatでSTARLINK-1094をリアルタイム追跡

Download on the App Store